Retour au catalogue

KUIPER-00103

ActifCommunicationsLEO
NORAD 65141·PAYLOAD·🇺🇸 United States

Lancé Aug 11, 2025 depuis Cape Canaveral Space Force Station

Loading…

Prochains Passages (prochaines 24 heures)

TLE

FraisSource: CelesTrak SupGP

Époque: Sep 14, 2026, 15:10 UTC

1 65141C 25171K   26257.63240741 -.00000343  00000+0 -44890-4 0  2579
2 65141  51.8989  55.0419 0000616 109.8062 176.9152 14.79930551    18

Suivez KUIPER-00103 en temps réel avec AllMySat

Download on the App Store